Flag for Comoros Weather past 2 weeks in Mutsamudu, Comoros

Now
82 °F

Scattered clouds.


Feels Like: 85 °F
Forecast: 72 / 76 °F
Wind: 7 mph from East

Location: Dzaoudzi / Pamanzi Mayotte

Current Time: Sep 18, 2014 at 11:24:32 AM

Latest Report: Sep 18, 2014 at 11:00 AM


Visibility: N/A

Pressure: 30.04 "Hg

Humidity: 62%

Dew point: 68 °F

Location of MutsamuduLocation

Historic Weather in Mutsamudu — Graph

°F

Mutsamudu temperature yesterday

Maximum temperature yesterday: 84 °F (at 12:05 PM)
Minimum temperature yesterday: 70 °F (at 3:00 AM)
Average temperature yesterday: 77 °F

Past Weeks' High & Low Weather Summary

 TemperatureHumidityPressure
High86 °F (Sep 7, 11:30 AM)94% (Sep 5, 1:00 AM)30.12 "Hg (Sep 5, 1:00 AM)
Low70 °F (Sep 5, 12:30 AM)55% (Sep 3, 10:30 AM)29.95 "Hg (Sep 3, 1:00 PM)
Average78 °F74%30.04 "Hg
* Reported Sep 3 10:00 AM — Sep 18 10:00 AM, Mutsamudu, Weather by CustomWeather, © 2014

Note: Actual official high and low records may vary slightly from our data, if they occured in-between our weather recording intervals... More about our weather records

Advertising

Mutsamudu weather history for previous 24 hours

 ConditionsComfort  
Time TempWeatherWind HumidityBarometerVisibility
10:00 AM
Sep 18
84 °FScattered clouds.5 mph58%30.07 "HgN/A
9:30 AM84 °FScattered clouds.6 mph58%30.04 "HgN/A
9:00 AM82 °FPassing clouds.7 mph62%30.04 "HgN/A
8:30 AM82 °FPassing clouds.7 mph62%30.04 "HgN/A
8:00 AM81 °FPassing clouds.6 mph66%30.04 "HgN/A
7:30 AM79 °FPassing clouds.9 mph70%30.01 "HgN/A
7:00 AM77 °FPassing clouds.6 mph74%30.01 "HgN/A
6:30 AM75 °FPassing clouds.5 mph74%29.98 "HgN/A
6:00 AM75 °FPassing clouds.6 mph74%29.98 "HgN/A
5:30 AM75 °FPassing clouds.6 mph74%29.98 "HgN/A
5:00 AM75 °FMild.7 mph74%29.95 "HgN/A
4:30 AM75 °FMild.6 mph74%29.95 "HgN/A
4:00 AM75 °FMild.7 mph74%29.95 "HgN/A
3:30 AM75 °FMild.7 mph74%29.95 "HgN/A
3:00 AM75 °FMild.7 mph74%29.95 "HgN/A
2:30 AM75 °FMild.6 mph74%29.95 "HgN/A
2:00 AM75 °FMild.6 mph74%29.95 "HgN/A
1:30 AM75 °FMild.8 mph78%29.95 "HgN/A
1:00 AM75 °FMild.8 mph74%29.95 "HgN/A
12:30 AM75 °FMild.9 mph74%29.95 "HgN/A
12:00 AM75 °FMild.7 mph74%29.98 "HgN/A
11:30 PM
Sep 17
73 °FMild.2 mph78%29.98 "HgN/A
11:00 PM75 °FMild.5 mph74%29.98 "HgN/A
10:30 PM75 °FMild.3 mph74%30.01 "HgN/A
10:00 PM75 °FMild.5 mph78%30.01 "HgN/A
9:30 PM75 °FPassing clouds.3 mph78%30.01 "HgN/A
9:00 PM75 °FMild.3 mph74%30.01 "Hg4 mi
8:30 PM75 °FMild.3 mph74%30.01 "HgN/A
8:00 PM75 °FMild.2 mph74%30.01 "HgN/A
7:30 PM75 °FMild.3 mph74%29.98 "HgN/A
7:00 PM77 °FHaze.3 mph74%29.98 "Hg2 mi
6:30 PM77 °FWarm.5 mph74%29.98 "HgN/A
6:00 PM77 °FPassing clouds.5 mph74%29.98 "HgN/A
5:30 PM79 °FPassing clouds.5 mph70%29.95 "HgN/A
5:00 PM79 °FPassing clouds.6 mph70%29.95 "HgN/A
4:30 PM79 °FPassing clouds.7 mph70%29.95 "HgN/A
4:00 PM82 °FScattered clouds.7 mph62%29.95 "HgN/A
3:30 PM81 °FScattered clouds.7 mph66%29.95 "HgN/A
3:00 PM82 °FPassing clouds.7 mph62%29.95 "HgN/A
2:30 PM82 °FPassing clouds.8 mph62%29.95 "HgN/A
2:00 PM82 °FPassing clouds.8 mph62%29.95 "HgN/A
1:47 PM82 °FPassing clouds.7 mph62%29.95 "HgN/A
1:00 PM82 °FPassing clouds.8 mph62%29.95 "HgN/A
12:30 PM82 °FPassing clouds.9 mph58%29.98 "HgN/A
12:05 PM84 °FPassing clouds.8 mph55%29.98 "HgN/A
11:30 AM82 °FPassing clouds.8 mph58%30.01 "HgN/A
11:00 AM82 °FPassing clouds.9 mph58%30.01 "HgN/A
Weather by CustomWeather, © 2014

See weather overviewHow to use our weather pages